Here are the VEGA CubeSat KEPs for this week. E-Star, PW-Sat, and UniCubeSat are still undesignated as far as I know. Any ideas what Objects D, E, G, and H are?
Robusta has suffered a battery charging failure and is no longer active. I do not know which of the undesignated objects is Robusta either. Any ideas?
ALMASAT1 1 38078U 12006B 12075.74607992 .00022354 00000-0 63908-3 0 417 2 38078 069.4905 168.3851 0773206 005.2548 355.6096 14.05538174 4402 MO-72 1 38079U 12006C 12075.63971052 .00042062 00000-0 10650-2 0 780 2 38079 069.4859 168.4342 0774383 005.3699 355.5126 14.07696264 4389 OBJECT D 1 38080U 12006D 12075.64417227 .00041834 00000-0 10825-2 0 760 2 38080 069.4859 168.4318 0773248 005.3277 355.5503 14.07496848 4380 OBJECT E 1 38081U 12006E 12075.57362786 .00040012 00000-0 10255-2 0 799 2 38081 069.4855 168.6074 0774454 005.4038 355.4951 14.07440225 4377 XATCOBEO 1 38082U 12006F 12075.64326313 .00048506 00000-0 12676-2 0 878 2 38082 069.4828 168.4285 0771153 005.2969 355.5690 14.07723557 4388 OBJECT G 1 38083U 12006G 12075.71411595 .00046073 00000-0 11920-2 0 939 2 38083 069.4837 168.2721 0772378 005.2657 355.5998 14.07673387 4393 OBJECT H 1 38084U 12006H 12075.64859718 .00038604 00000-0 10186-2 0 771 2 38084 069.4844 168.4434 0772690 005.3528 355.5191 14.07225990 4387 GOLIAT 1 38085U 12006J 12075.64866958 .00042483 00000-0 11151-2 0 779 2 38085 069.4868 168.4448 0773223 005.3956 355.4745 14.07207206 4381
participants (1)
-
Ray Hoad